Purchase, NY

3:12 AM EDT on September 30, 2016 (GMT -0400)
Westchester County

Weather History for KHPN - October, 2015

Change the Weather History Date:

Monday, October 26, 2015

  Actual Average Record
Temperature  
Mean Temperature 46 °F -  
Max Temperature 57 °F 56 °F 73 °F (1989)
Min Temperature 37 °F 40 °F 29 °F (1987)
Degree Days  
Heating Degree Days 19    
Moisture  
Dew Point 33 °F    
Average Humidity 66    
Maximum Humidity 89    
Minimum Humidity 34    
Precipitation  
Precipitation 0.00 in - - ()
Sea Level Pressure  
Sea Level Pressure 30.41 in    
Wind  
Wind Speed 5 mph (NNW)    
Max Wind Speed 9 mph    
Max Gust Speed -    
Visibility 10 miles    
Events      
Averages and records for this station are not official NWS values.
T = Trace of Precipitation, MM = Missing Value Source: NWS Daily Summary

Daily Weather History Graph

Daily Weather History Graph

Search for Another Location

Airport or City:

Trip Planner

Search our weather history database for the weather conditions in past years. The results will help you decide how hot, cold, wet, or windy it might be!

Date:

Astronomy

Oct. 26, 2015 Rise Set
Actual Time 7:18 AM EDT 5:58 PM EDT
Civil Twilight 6:50 AM EDT 6:26 PM EDT
Nautical Twilight 6:17 AM EDT 6:58 PM EDT
Astronomical Twilight 5:46 AM EDT 7:30 PM EDT
Moon 5:43 PM EDT (10/26) 6:00 AM EDT (10/26)
Length of Visible Light 11h 36m
Length of Day
10h 40m
Waxing Gibbous, 99% of the Moon is Illuminated
Oct 26
Waxing Gibbous
Oct 27
Full
Nov 3
Last Quarter
Nov 11
New
Nov 19
First Quarter

Hourly Weather History & Observations

Time (EDT) Temp. Windchill Dew Point Humidity Pressure Visibility Wind Dir Wind Speed Gust Speed Precip Events Conditions
12:56 AM 41.0 °F 38.0 °F 35.1 °F 79% 30.27 in 10.0 mi NNW 4.6 mph - N/A   Clear
1:56 AM 39.0 °F - 36.0 °F 89% 30.28 in 10.0 mi Calm Calm - N/A   Clear
2:56 AM 41.0 °F - 35.1 °F 79% 30.29 in 10.0 mi Calm Calm - N/A   Clear
3:56 AM 37.9 °F - 35.1 °F 89% 30.30 in 10.0 mi Calm Calm - N/A   Clear
4:56 AM 39.0 °F 36.8 °F 35.1 °F 86% 30.34 in 10.0 mi NW 3.5 mph - N/A   Clear
5:56 AM 37.9 °F 33.5 °F 35.1 °F 89% 30.36 in 10.0 mi NNW 5.8 mph - N/A   Clear
6:56 AM 37.9 °F 32.7 °F 34.0 °F 86% 30.38 in 10.0 mi NW 6.9 mph - N/A   Clear
7:56 AM 37.0 °F 31.6 °F 34.0 °F 89% 30.41 in 10.0 mi NNW 6.9 mph - N/A   Clear
8:56 AM 45.0 °F 40.1 °F 37.9 °F 76% 30.43 in 10.0 mi NNW 9.2 mph - N/A   Partly Cloudy
9:56 AM 48.0 °F - 37.9 °F 68% 30.44 in 10.0 mi North 9.2 mph - N/A   Partly Cloudy
10:56 AM 50.0 °F - 36.0 °F 59% 30.44 in 10.0 mi North 9.2 mph - N/A   Scattered Clouds
11:56 AM 52.0 °F - 34.0 °F 50% 30.44 in 10.0 mi NNW 8.1 mph - N/A   Partly Cloudy
12:56 PM 53.1 °F - 33.1 °F 47% 30.43 in 10.0 mi NW 9.2 mph - N/A   Clear
1:56 PM 55.0 °F - 30.9 °F 40% 30.41 in 10.0 mi North 8.1 mph - N/A   Clear
2:56 PM 55.9 °F - 30.9 °F 39% 30.40 in 10.0 mi NW 5.8 mph - N/A   Clear
3:56 PM 55.9 °F - 28.0 °F 34% 30.41 in 10.0 mi NNW 8.1 mph - N/A   Clear
4:56 PM 55.0 °F - 27.0 °F 34% 30.41 in 10.0 mi North 9.2 mph - N/A   Clear
5:56 PM 51.1 °F - 28.0 °F 41% 30.42 in 10.0 mi North 4.6 mph - N/A   Clear
6:56 PM 44.1 °F - 30.0 °F 58% 30.45 in 10.0 mi Calm Calm - N/A   Clear
7:56 PM 43.0 °F 40.3 °F 32.0 °F 65% 30.47 in 10.0 mi NW 4.6 mph - N/A   Clear
8:56 PM 43.0 °F 41.3 °F 34.0 °F 71% 30.48 in 10.0 mi WNW 3.5 mph - N/A   Clear
9:56 PM 39.0 °F 34.8 °F 32.0 °F 76% 30.49 in 10.0 mi NNW 5.8 mph - N/A   Clear
10:56 PM 42.1 °F 40.2 °F 30.0 °F 62% 30.51 in 10.0 mi WNW 3.5 mph - N/A   Clear
11:56 PM 39.9 °F 36.7 °F 30.0 °F 68% 30.50 in 10.0 mi WNW 4.6 mph - N/A   Clear